Evansville, IN

2:30 PM CST on November 22, 2019 (GMT -0600)
Evansville Regional

Weather History for KEVV - October, 2019

Change the Weather History Date:

Tuesday, October 22, 2019

  Actual Average Record
Temperature  
Mean Temperature 54 °F 56 °F  
Max Temperature 64 °F 68 °F 90 °F (1963)
Min Temperature 43 °F 44 °F 21 °F (1952)
Degree Days  
Heating Degree Days 12 10  
Month to date heating degree days 142 157  
Since 1 July heating degree days 142 204  
Cooling Degree Days 0 0  
Month to date cooling degree days 49 28  
Year to date cooling degree days 1640 1394  
Growing Degree Days 4 (Base 50)    
Moisture  
Dew Point 38 °F    
Average Humidity 57    
Maximum Humidity 83    
Minimum Humidity 36    
Precipitation  
Precipitation 0.00 in 0.11 in 1.45 in (1933)
Month to date precipitation 2.76 2.26  
Year to date precipitation 48.84 36.23  
Snow  
Snow 0.00 in 0.00 in 0.00 in (2002)
Month to date snowfall 0.0 0.1  
Since 1 July snowfall 0.0 0.1  
Since 1 September snowfall 0.0 0.1  
Snow Depth 0.00 in    
Sea Level Pressure  
Sea Level Pressure 29.90 in    
Wind  
Wind Speed 9 mph ()    
Max Wind Speed 25 mph    
Max Gust Speed 33 mph    
Visibility 10.0 miles    
Events      
T = Trace of Precipitation, MM = Missing Value Source: Averaged Metar Reports

Daily Weather History Graph

Daily Weather History Graph

Search for Another Location

Airport or City:

Astronomy

Oct. 22, 2019 Rise Set
Actual Time 7:05 AM CDT 6:03 PM CDT
Civil Twilight 6:38 AM CDT 6:29 PM CDT
Nautical Twilight 6:07 AM CDT 7:00 PM CDT
Astronomical Twilight 5:37 AM CDT 7:31 PM CDT
Moon 12:22 AM CDT 3:04 PM CDT
Length of Visible Light 11h 51m
Length of Day
10h 57m
Last Quarter, 37% of the Moon is Illuminated
Oct 22
Last Quarter
Oct 27
New
Nov 4
First Quarter
Nov 12
Full
Nov 19
Last Quarter

Hourly Weather History & Observations

Time (CDT) Temp. Windchill Dew Point Humidity Pressure Visibility Wind Dir Wind Speed Gust Speed Precip Events Conditions
12:54 AM 52.0 °F - 46.9 °F 83% 29.80 in 10.0 mi WSW 3.5 mph - N/A   Clear
1:54 AM 52.0 °F - 45.0 °F 77% 29.79 in 10.0 mi SW 5.8 mph - N/A   Clear
2:54 AM 52.0 °F - 45.0 °F 77% 29.80 in 10.0 mi SW 10.4 mph - N/A   Clear
3:54 AM 52.0 °F - 43.0 °F 71% 29.79 in 10.0 mi SW 10.4 mph - N/A   Clear
4:54 AM 51.1 °F - 41.0 °F 68% 29.81 in 10.0 mi WSW 9.2 mph - N/A   Clear
5:54 AM 50.0 °F - 39.9 °F 68% 29.83 in 10.0 mi WSW 10.4 mph - N/A   Clear
6:54 AM 48.9 °F - 39.0 °F 69% 29.86 in 10.0 mi WSW 8.1 mph - N/A   Clear
7:54 AM 50.0 °F - 41.0 °F 71% 29.87 in 10.0 mi SW 9.2 mph - N/A   Clear
8:54 AM 54.0 °F - 39.9 °F 59% 29.89 in 10.0 mi WSW 15.0 mph - N/A   Clear
9:54 AM 55.0 °F - 39.9 °F 57% 29.90 in 10.0 mi WSW 12.7 mph - N/A   Partly Cloudy
10:54 AM 57.0 °F - 39.9 °F 53% 29.92 in 10.0 mi SW 19.6 mph - N/A   Partly Cloudy
11:54 AM 59.0 °F - 39.9 °F 49% 29.91 in 10.0 mi SW 19.6 mph 23.0 mph N/A   Clear
12:54 PM 62.1 °F - 39.9 °F 44% 29.89 in 10.0 mi WSW 18.4 mph 31.1 mph N/A   Partly Cloudy
1:54 PM 63.0 °F - 39.0 °F 41% 29.88 in 10.0 mi WSW 17.3 mph 27.6 mph N/A   Partly Cloudy
2:54 PM 62.1 °F - 37.9 °F 41% 29.89 in 10.0 mi WSW 18.4 mph 28.8 mph N/A   Partly Cloudy
3:54 PM 63.0 °F - 37.0 °F 38% 29.91 in 10.0 mi SW 19.6 mph 31.1 mph N/A   Scattered Clouds
4:54 PM 61.0 °F - 35.1 °F 38% 29.91 in 10.0 mi WSW 15.0 mph 24.2 mph N/A   Partly Cloudy
5:54 PM 59.0 °F - 32.0 °F 36% 29.93 in 10.0 mi WSW 12.7 mph 23.0 mph N/A   Partly Cloudy
6:54 PM 53.1 °F - 33.1 °F 47% 29.95 in 10.0 mi WSW 5.8 mph - N/A   Clear
7:54 PM 48.9 °F - 33.1 °F 54% 29.98 in 10.0 mi WSW 4.6 mph - N/A   Clear
8:54 PM 48.0 °F - 33.1 °F 56% 29.99 in 10.0 mi West 3.5 mph - N/A   Clear
9:54 PM 48.0 °F - 33.1 °F 56% 30.01 in 10.0 mi WSW 3.5 mph - N/A   Clear
10:54 PM 46.9 °F - 30.9 °F 54% 30.03 in 10.0 mi WSW 3.5 mph - N/A   Clear
11:54 PM 44.1 °F 41.5 °F 30.9 °F 60% 30.04 in 10.0 mi West 4.6 mph - N/A   Clear